Location: Sebastopol
(38.4021°N, 122.8239°W)
Time: 14:32:20
(UTC+00:00)

FENGYUN 3A - Pass Details

Date: 29 October 2020
Orbit: 824 x 836 km, 98.4° (Epoch: 30 November)

Event Time Altitude Azimuth Distance (km) Brightness Sun altitude
Rises 12:34:16 0° 15° (NNE) 3,393 7.1 -24.2°
Reaches altitude 10° 12:36:39 10° 18° (NNE) 2,455 6.3 -23.7°
Maximum altitude 12:42:05 70° 102° (ESE) 888 3.9 -22.7°
Drops below altitude 10° 12:47:28 10° 186° (S) 2,436 6.0 -21.6°
Sets 12:49:50 0° 188° (S) 3,365 6.8 -21.2°
